Antigo, WI

1:42 PM CDT on March 27, 2017 (GMT -0500)
Langlade County

Weather History for KAIG - December, 2013

Change the Weather History Date:

Sunday, December 22, 2013

  Actual Average Record
Temperature  
Mean Temperature 18 °F -  
Max Temperature 22 °F 23 °F 43 °F (1957)
Min Temperature 14 °F 3 °F -27 °F (1989)
Degree Days  
Heating Degree Days 47    
Moisture  
Dew Point 15 °F    
Average Humidity 86    
Maximum Humidity 93    
Minimum Humidity 76    
Precipitation  
Precipitation 0.00 in - - ()
Sea Level Pressure  
Sea Level Pressure 29.89 in    
Wind  
Wind Speed 9 mph (NNE)    
Max Wind Speed 13 mph    
Max Gust Speed 17 mph    
Visibility 6 miles    
Events Snow    
Averages and records for this station are not official NWS values.
T = Trace of Precipitation, MM = Missing Value Source: NWS Daily Summary

Daily Weather History Graph

Daily Weather History Graph

Search for Another Location

Airport or City:

Trip Planner

Search our weather history database for the weather conditions in past years. The results will help you decide how hot, cold, wet, or windy it might be!

Date:

Astronomy

Dec. 22, 2013 Rise Set
Actual Time 7:32 AM CST 4:17 PM CST
Civil Twilight 6:58 AM CST 4:51 PM CST
Nautical Twilight 6:21 AM CST 5:29 PM CST
Astronomical Twilight 5:45 AM CST 6:04 PM CST
Moon 9:43 PM CST (12/22) 10:16 AM CST (12/22)
Length of Visible Light 9h 52m
Length of Day
8h 44m
Waning Gibbous, 76% of the Moon is Illuminated
Dec 22
Waning Gibbous
Dec 25
Last Quarter
Jan 1
New
Jan 7
First Quarter
Jan 15
Full

Hourly Weather History & Observations

Time (CST) Temp. Windchill Dew Point Humidity Pressure Visibility Wind Dir Wind Speed Gust Speed Precip Events Conditions
12:15 AM 19.9 °F 10.1 °F 13.5 °F 76% 29.82 in 10.0 mi North 8.1 mph - N/A   Overcast
12:35 AM 19.9 °F 10.1 °F 13.6 °F 77% 29.83 in 10.0 mi NNE 8.1 mph - N/A   Overcast
12:55 AM 19.9 °F 8.6 °F 13.5 °F 76% 29.81 in 10.0 mi NNE 10.4 mph - N/A   Overcast
1:15 AM 19.6 °F 8.1 °F 13.5 °F 77% 29.81 in 10.0 mi NE 10.4 mph - N/A   Overcast
1:35 AM 19.4 °F 7.2 °F 13.5 °F 78% 29.81 in 10.0 mi NE 11.5 mph - N/A   Overcast
1:55 AM 18.9 °F 6.5 °F 13.1 °F 78% 29.81 in 10.0 mi NE 11.5 mph - N/A   Overcast
2:15 AM 18.3 °F 5.9 °F 13.1 °F 80% 29.80 in 10.0 mi NE 11.5 mph - N/A   Overcast
2:35 AM 18.5 °F 6.1 °F 13.6 °F 81% 29.81 in 10.0 mi NE 11.5 mph - N/A   Overcast
2:55 AM 18.5 °F 6.8 °F 14.0 °F 83% 29.82 in 10.0 mi NE 10.4 mph - N/A   Overcast
3:15 AM 18.5 °F 6.8 °F 14.0 °F 83% 29.82 in 10.0 mi NNE 10.4 mph - N/A   Overcast
3:35 AM 18.3 °F 5.9 °F 14.0 °F 83% 29.80 in 10.0 mi NE 11.5 mph - N/A   Overcast
3:55 AM 18.1 °F 5.6 °F 14.0 °F 84% 29.79 in 10.0 mi NNE 11.5 mph - N/A   Overcast
4:15 AM 18.1 °F 5.0 °F 14.0 °F 84% 29.79 in 10.0 mi NE 12.7 mph - N/A   Overcast
4:35 AM 18.1 °F 6.3 °F 14.0 °F 84% 29.80 in 10.0 mi NE 10.4 mph - N/A   Overcast
4:55 AM 18.0 °F 5.4 °F 14.0 °F 84% 29.79 in 10.0 mi NE 11.5 mph - N/A   Overcast
5:15 AM 18.0 °F 6.9 °F 14.0 °F 84% 29.80 in 10.0 mi NNE 9.2 mph 17.3 mph N/A   Overcast
5:35 AM 17.6 °F 4.3 °F 14.0 °F 86% 29.80 in 10.0 mi NNE 12.7 mph - N/A   Overcast
5:55 AM 17.6 °F 8.2 °F 14.0 °F 86% 29.82 in 4.0 mi NNE 6.9 mph - N/A Snow Light Snow
6:15 AM 17.4 °F 4.7 °F 14.4 °F 88% 29.81 in 2.0 mi NNE 11.5 mph - N/A Snow Light Snow
6:35 AM 17.2 °F 5.2 °F 14.7 °F 90% 29.81 in 1.5 mi NNE 10.4 mph - N/A Snow Light Snow
6:55 AM 17.1 °F 5.8 °F 14.7 °F 91% 29.81 in 1.5 mi NNE 9.2 mph - N/A Snow Light Snow
7:15 AM 16.7 °F 4.5 °F 14.2 °F 90% 29.81 in 1.5 mi NNE 10.4 mph - N/A Snow Light Snow
7:35 AM 16.7 °F 4.5 °F 14.0 °F 89% 29.82 in 1.5 mi NNE 10.4 mph - N/A Snow Light Snow
7:55 AM 16.7 °F 4.5 °F 13.8 °F 88% 29.82 in 1.0 mi NNE 10.4 mph - N/A Snow Light Snow
8:15 AM 16.7 °F 3.8 °F 14.0 °F 89% 29.82 in 0.8 mi NNE 11.5 mph - N/A Snow Light Snow
8:35 AM 16.7 °F 4.5 °F 13.8 °F 88% 29.83 in 1.2 mi NNE 10.4 mph - N/A Snow Light Snow
8:55 AM 16.7 °F 4.5 °F 13.8 °F 88% 29.83 in 1.0 mi NNE 10.4 mph - N/A Snow Light Snow
9:15 AM 16.7 °F 4.5 °F 14.0 °F 89% 29.84 in 1.0 mi NNE 10.4 mph - N/A Snow Light Snow
9:35 AM 17.1 °F 5.0 °F 14.0 °F 88% 29.85 in 1.0 mi NNE 10.4 mph - N/A Snow Light Snow
9:55 AM 17.2 °F 6.8 °F 14.5 °F 89% 29.86 in 1.2 mi NE 8.1 mph - N/A Snow Light Snow
10:15 AM 17.6 °F 6.4 °F 14.9 °F 89% 29.86 in 2.0 mi NE 9.2 mph - N/A Snow Light Snow
10:35 AM 18.0 °F 6.1 °F 14.9 °F 88% 29.86 in 1.8 mi NE 10.4 mph - N/A Snow Light Snow
10:55 AM 18.5 °F 7.5 °F 15.4 °F 88% 29.86 in 5.0 mi NE 9.2 mph - N/A   Overcast
11:15 AM 19.0 °F 8.2 °F 15.8 °F 87% 29.86 in 4.0 mi NE 9.2 mph - N/A Snow Light Snow
11:35 AM 19.6 °F 8.1 °F 16.2 °F 87% 29.85 in 4.0 mi NE 10.4 mph - N/A   Overcast
11:55 AM 19.9 °F 8.6 °F 16.3 °F 86% 29.85 in 7.0 mi NE 10.4 mph - N/A   Overcast
12:15 PM 20.7 °F 10.2 °F 16.5 °F 84% 29.85 in 5.0 mi NE 9.2 mph - N/A   Overcast
12:35 PM 20.8 °F 9.0 °F 16.9 °F 85% 29.84 in 5.0 mi NE 11.5 mph - N/A   Overcast
12:55 PM 21.2 °F 8.9 °F 16.7 °F 83% 29.84 in 10.0 mi NE 12.7 mph - N/A   Overcast
1:15 PM 21.7 °F 11.5 °F 16.5 °F 80% 29.85 in 10.0 mi NE 9.2 mph - N/A   Overcast
1:35 PM 22.1 °F 13.7 °F 16.5 °F 79% 29.86 in 10.0 mi NE 6.9 mph - N/A   Overcast
1:55 PM 22.1 °F 10.0 °F 16.2 °F 78% 29.86 in 10.0 mi NE 12.7 mph - N/A   Overcast
2:15 PM 21.7 °F 10.8 °F 16.2 °F 79% 29.87 in 10.0 mi NE 10.4 mph - N/A   Overcast
2:35 PM 21.6 °F 10.6 °F 16.5 °F 81% 29.88 in 7.0 mi NNE 10.4 mph - N/A Snow Light Snow
2:55 PM 21.2 °F 12.6 °F 16.9 °F 83% 29.89 in 3.0 mi NNE 6.9 mph - N/A Snow Light Snow
3:15 PM 21.2 °F 11.7 °F 17.6 °F 86% 29.90 in 1.8 mi NNE 8.1 mph - N/A Snow Light Snow
3:35 PM 20.8 °F 13.2 °F 17.6 °F 87% 29.92 in 1.8 mi NNE 5.8 mph - N/A Snow Light Snow
3:55 PM 20.3 °F 12.5 °F 17.6 °F 89% 29.93 in 2.0 mi North 5.8 mph - N/A Snow Light Snow
4:15 PM 20.3 °F 12.5 °F 18.0 °F 91% 29.94 in 2.5 mi North 5.8 mph - N/A Snow Light Snow
4:35 PM 20.1 °F 13.6 °F 18.0 °F 91% 29.95 in 7.0 mi North 4.6 mph - N/A Snow Light Snow
4:55 PM 20.3 °F 11.5 °F 18.5 °F 93% 29.96 in 2.0 mi North 6.9 mph - N/A Snow Light Snow
5:15 PM 20.1 °F 9.5 °F 17.2 °F 89% 29.96 in 3.0 mi North 9.2 mph - N/A Snow Light Snow
5:35 PM 19.8 °F 9.1 °F 16.2 °F 86% 29.97 in 5.0 mi NNE 9.2 mph - N/A Snow Light Snow
5:55 PM 19.4 °F 10.4 °F 15.6 °F 85% 29.98 in 10.0 mi NNE 6.9 mph - N/A   Overcast
6:15 PM 19.2 °F 10.2 °F 15.6 °F 86% 29.97 in 7.0 mi NNE 6.9 mph - N/A Snow Light Snow
6:35 PM 19.2 °F 10.2 °F 16.2 °F 88% 29.97 in 7.0 mi NNE 6.9 mph - N/A Snow Light Snow
6:55 PM 18.5 °F 10.4 °F 16.0 °F 90% 29.98 in 10.0 mi North 5.8 mph - N/A   Overcast
7:15 PM 18.1 °F 7.9 °F 15.6 °F 90% 29.99 in 10.0 mi North 8.1 mph - N/A   Overcast
7:35 PM 18.5 °F 9.3 °F 15.1 °F 86% 29.99 in 10.0 mi North 6.9 mph - N/A   Overcast
7:55 PM 17.8 °F 9.6 °F 14.5 °F 87% 30.00 in 7.0 mi NNE 5.8 mph - N/A   Overcast
8:15 PM 16.5 °F 9.4 °F 13.6 °F 88% 30.01 in 10.0 mi North 4.6 mph - N/A   Scattered Clouds
8:35 PM 14.5 °F 8.8 °F 12.2 °F 90% 30.01 in 10.0 mi North 3.5 mph - N/A   Scattered Clouds
8:55 PM 14.9 °F 9.2 °F 12.9 °F 92% 30.01 in 7.0 mi North 3.5 mph - N/A   Mostly Cloudy
9:15 PM 15.3 °F 7.9 °F 13.1 °F 91% 30.01 in 10.0 mi NNE 4.6 mph - N/A   Overcast
9:35 PM 15.1 °F 7.7 °F 12.9 °F 91% 30.01 in 10.0 mi North 4.6 mph - N/A   Overcast
9:55 PM 15.3 °F 6.6 °F 13.1 °F 91% 30.02 in 10.0 mi North 5.8 mph - N/A   Overcast
10:15 PM 15.1 °F 9.4 °F 12.9 °F 91% 30.02 in 10.0 mi North 3.5 mph - N/A   Overcast
10:35 PM 14.9 °F 7.5 °F 13.1 °F 93% 30.02 in 10.0 mi North 4.6 mph - N/A   Overcast
10:55 PM 14.9 °F 7.5 °F 12.9 °F 92% 30.04 in 7.0 mi North 4.6 mph - N/A   Overcast
11:15 PM 15.3 °F 7.9 °F 12.9 °F 90% 30.05 in 7.0 mi North 4.6 mph - N/A Snow Light Snow
11:35 PM 15.8 °F 8.6 °F 13.5 °F 90% 30.05 in 4.0 mi North 4.6 mph - N/A Snow Light Snow
11:55 PM 16.3 °F 10.8 °F 13.8 °F 90% 30.05 in 3.0 mi North 3.5 mph - N/A Snow Light Snow